FW4468 Weather Reports


Display with metric or nautical units.
time (UTC)temp
F
wind
direction
speed
MPH
gust
MPH
rain 1hr
in
rain 24hr
in
rain mn
in
humidity
%
barometer
mb
20260903181511 60 274 2.0 12.0 0.00 0.25 0.04 63 1008.6
20260903180007 60 240 2.0 10.0 0.00 0.25 0.04 63 1008.6
20260903174515 59 162 2.0 10.0 0.00 0.25 0.04 64 1008.4
20260903173005 58 182 2.0 12.0 0.00 0.25 0.04 64 1008.4
20260903171603 58 145 3.0 10.0 0.00 0.25 0.04 64 1008.5
20260903170111 58 121 0.0 6.0 0.00 0.25 0.04 66 1008.3
20260903164559 58 153 1.0 7.0 0.00 0.25 0.04 66 1008.1
20260903163056 58 158 0.0 10.0 0.00 0.25 0.04 66 1008.1
20260903161553 57 84 0.0 3.0 0.00 0.25 0.04 67 1008.2
20260903160050 56 166 0.0 5.0 0.00 0.25 0.04 68 1008.1
20260903154555 56 290 0.0 6.0 0.00 0.25 0.04 71 1008.1
20260903153053 55 46 0.0 3.0 0.00 0.25 0.04 72 1008.1
20260903151553 54 248 0.0 5.0 0.00 0.25 0.04 73 1008.1
20260903150052 54 133 0.0 3.0 0.00 0.25 0.04 73 1008.2
20260903144548 54 111 0.0 4.0 0.00 0.25 0.04 73 1008.0
20260903143045 54 159 0.0 3.0 0.00 0.25 0.04 72 1007.9
20260903141543 54 150 0.0 3.0 0.01 0.25 0.04 72 1007.8
20260903140042 54 88 0.0 2.0 0.01 0.25 0.04 71 1007.7
20260903134541 54 149 0.0 4.0 0.01 0.25 0.04 70 1007.5
20260903133049 54 47 0.0 3.0 0.01 0.25 0.04 70 1007.2
20260903131537 54 47 0.0 2.0 0.00 0.24 0.03 70 1007.1
20260903130037 54 201 0.0 3.0 0.00 0.24 0.03 70 1007.1
20260903124540 54 168 3.0 9.0 0.00 0.24 0.03 70 1007.0
20260903123036 54 61 1.0 3.0 0.00 0.24 0.03 70 1006.9
20260903121533 54 55 0.0 2.0 0.00 0.24 0.03 71 1006.9
20260903120033 54 94 1.0 5.0 0.01 0.24 0.03 71 1006.8
20260903114531 54 69 0.0 5.0 0.02 0.24 0.03 71 1006.7
20260903113030 54 76 0.0 3.0 0.02 0.24 0.03 70 1006.7
20260903111548 55 36 0.0 3.0 0.03 0.24 0.03 70 1006.6
20260903110026 55 84 0.0 2.0 0.02 0.23 0.02 69 1006.7
20260903104633 55 42 0.0 8.0 0.01 0.22 0.01 68 1006.7
20260903103024 56 213 0.0 6.0 0.01 0.22 0.01 67 1006.7
20260903101521 56 130 0.0 8.0 0.00 0.21 0.00 66 1006.5
20260903100022 56 110 1.0 4.0 0.00 0.21 0.00 66 1006.3
20260903094520 56 131 0.0 3.0 0.00 0.21 0.00 66 1006.2
20260903093031 56 187 0.0 7.0 0.00 0.21 0.00 66 1006.3
20260903091529 56 38 0.0 6.0 0.00 0.21 0.00 66 1006.3
20260903090016 56 107 0.0 6.0 0.00 0.21 0.00 66 1006.3
20260903084512 56 150 0.0 5.0 0.00 0.21 0.00 66 1006.2
20260903083010 55 173 0.0 5.0 0.00 0.21 0.00 67 1006.2
20260903081509 55 71 0.0 3.0 0.00 0.21 0.00 68 1006.1
20260903080007 55 121 0.0 5.0 0.00 0.21 0.00 67 1006.2
20260903074506 55 41 1.0 4.0 0.00 0.21 0.00 67 1006.0
20260903073014 55 127 1.0 3.0 0.00 0.21 0.00 68 1005.9
20260903071503 55 192 0.0 4.0 0.00 0.21 0.00 67 1006.0
20260903070001 55 32 0.0 4.0 0.00 0.21 0.21 67 1005.9
20260903064501 55 153 1.0 6.0 0.00 0.21 0.21 67 1005.9
20260903063059 55 123 0.0 2.0 0.00 0.21 0.21 67 1005.9
20260903061604 56 181 0.0 3.0 0.00 0.21 0.21 67 1006.1
20260903060057 56 188 0.0 4.0 0.00 0.21 0.21 66 1006.0
20260903054555 56 238 0.0 4.0 0.00 0.21 0.21 66 1006.0
20260903053107 56 52 2.0 7.0 0.00 0.21 0.21 67 1006.0
20260903051553 56 262 0.0 6.0 0.00 0.21 0.21 67 1005.8
20260903050051 56 118 1.0 11.0 0.00 0.21 0.21 67 1005.7
20260903044555 56 152 1.0 8.0 0.00 0.21 0.21 67 1005.5
20260903043049 56 240 0.0 4.0 0.00 0.21 0.21 67 1005.2
20260903041548 57 17 0.0 7.0 0.00 0.21 0.21 68 1005.3
20260903040047 57 74 0.0 7.0 0.00 0.21 0.21 68 1005.2
20260903034546 57 298 1.0 5.0 0.00 0.21 0.21 68 1005.0
20260903033050 57 70 0.0 9.0 0.00 0.21 0.21 68 1004.9
20260903031550 57 101 2.0 10.0 0.00 0.21 0.21 68 1004.6
20260903030107 57 151 4.0 11.0 0.00 0.21 0.21 68 1004.5
20260903024543 57 209 2.0 8.0 0.00 0.21 0.21 68 1004.0
20260903023042 58 204 1.0 10.0 0.00 0.21 0.21 67 1003.9
20260903021540 58 119 1.0 10.0 0.00 0.21 0.21 66 1003.7
20260903020040 58 197 3.0 9.0 0.00 0.21 0.21 65 1003.5
20260903014539 59 179 6.0 14.0 0.00 0.21 0.21 65 1003.5
20260903013044 59 211 3.0 14.0 0.00 0.21 0.21 66 1003.3
20260903011540 59 107 6.0 16.0 0.00 0.21 0.21 65 1003.0
20260903010039 59 208 5.0 17.0 0.00 0.21 0.21 67 1002.8
20260903004536 59 148 2.0 10.0 0.00 0.21 0.21 78 1002.8
20260903003039 58 59 0.0 12.0 0.00 0.21 0.21 75 1002.8
20260903001532 58 56 1.0 8.0 0.00 0.21 0.21 75 1002.5
20260903000031 57 164 1.0 16.0 0.02 0.21 0.21 75 1002.7
20260902234530 57 199 1.0 9.0 0.05 0.21 0.21 74 1002.6
20260902233029 57 73 2.0 8.0 0.08 0.21 0.21 72 1002.6
20260902231531 57 5 1.0 11.0 0.10 0.21 0.21 71 1002.9
20260902230024 58 119 1.0 12.0 0.10 0.19 0.19 70 1003.2
20260902224542 58 132 1.0 6.0 0.06 0.15 0.15 70 1003.4
20260902223021 58 159 0.0 4.0 0.05 0.12 0.12 69 1003.4
20260902221524 59 200 0.0 3.0 0.05 0.11 0.11 69 1003.6
20260902220043 59 219 0.0 3.0 0.04 0.09 0.09 68 1003.5
20260902214518 60 275 0.0 9.0 0.03 0.08 0.08 68 1003.7
20260902213017 60 158 0.0 8.0 0.02 0.07 0.07 67 1003.8
20260902211517 61 205 3.0 11.0 0.01 0.06 0.06 65 1003.8
20260902210021 62 262 3.0 9.0 0.00 0.05 0.05 65 1003.7
20260902204522 62 251 2.0 11.0 0.00 0.05 0.05 66 1003.7
20260902203015 62 219 1.0 11.0 0.01 0.05 0.05 65 1003.6
20260902201534 63 227 2.0 7.0 0.05 0.05 0.05 66 1003.6
20260902200015 63 234 0.0 3.0 0.05 0.05 0.05 69 1003.7
20260902194527 62 180 0.0 7.0 0.05 0.05 0.05 68 1003.8
20260902193113 64 238 4.0 12.0 0.04 0.04 0.04 62 1004.2
20260902191511 66 167 2.0 8.0 0.00 0.00 0.00 53 1003.7
20260902190013 67 150 0.0 10.0 0.00 0.00 0.00 52 1003.8
20260902184514 67 144 2.0 10.0 0.00 0.00 0.00 53 1003.9
20260902183004 64 169 1.0 6.0 0.00 0.00 0.00 60 1004.1